Location: Kott?ru
(16.6209°N, 80.6208°E)
Time: 13:23:59
(UTC+00:00)

CZ-2C R/B - Pass Details

Date: 18 September 2020
Orbit: 785 x 870 km, 98.2° (Epoch: 30 October)

Event Time Altitude Azimuth Distance (km) Brightness Sun altitude
Rises 14:20:33 0° 6° (N) 3,428 5.9 -25.5°
Reaches altitude 10° 14:22:57 10° 2° (N) 2,498 5.2 -26.1°
Maximum altitude 14:28:25 61° 284° (WNW) 982 3.2 -27.4°
Drops below altitude 10° 14:33:56 10° 204° (SSW) 2,507 5.3 -28.7°
Sets 14:36:20 0° 201° (SSW) 3,441 6.0 -29.3°
